2023-025A (55690 NORAD) Tracking and Keplerian Element Data

This shows tracking and keplerian element data for the satellite.

Feedback or suggestion? Click here.




ElementValue
Catalog55690
Name2023-025A
Epoch Orbit118
Epoch Day63.05041993
Epoch Year2023
RAAN136.9315
Inclination97.4717
Eccentricity0.0011588
Argument of Perigee211.6003
Mean Anonmoly268.501
Mean Motion15.23158039
Decay Rate0.00023712
L11 55690U 23025A 23063.05041993 .00023712 00000+0 10026-2 0 9997
L22 55690 97.4717 136.9315 0011588 211.6003 268.5010 15.23158039 1185



Live tracking and technical data element details for 2023-025A (NORAD 55690). 2023-025A can be tracked NOW for your location showing map with azimuth and elevation plus other details from your city location.







IsCatalogInMostPopularTable: catalog: 55690, numindb: 1
Update: records affected: 1



GetName: 55690 2023-025A

Hit Count: updated at: Wed, 22 Mar 2023 15:56:34 GMT